Location: Mitty Observatory
(35.9148°N, 88.8847°W)
Time: 00:32:55
(UTC-06:00)

LightSail 2 - Pass Details

Date: 29 January 2021
Orbit: 690 x 703 km, 24.0° (Epoch: 02 March)

Event Time Altitude Azimuth Distance (km) Brightness Sun altitude
Exits shadow 04:43:12 20° 176° (S) 1,549 6.9 -27.4°
Drops below altitude 10° 04:46:48 10° 130° (SE) 2,126 8.2 -26.7°
Sets 04:49:44 0° 114° (ESE) 3,042 9.5 -26.1°
